TimePDT,TemperatureF,Dew PointF,Humidity,Sea Level PressureIn,VisibilityMPH,Wind Direction,Wind SpeedMPH,Gust SpeedMPH,PrecipitationIn,Events,Conditions,WindDirDegrees,DateUTC
12:15 AM,41.0,26.6,57,30.15,10.0,SW,3.5,-,N/A,,Clear,230,2013-10-01 07:15:00
12:35 AM,41.0,28.4,61,30.15,10.0,South,5.8,-,N/A,,Clear,180,2013-10-01 07:35:00
12:55 AM,41.0,26.6,57,30.15,10.0,WNW,5.8,-,N/A,,Clear,300,2013-10-01 07:55:00
1:15 AM,37.4,26.6,65,30.15,10.0,Calm,Calm,-,N/A,,Clear,0,2013-10-01 08:15:00
1:35 AM,39.2,28.4,65,30.15,10.0,Calm,Calm,-,N/A,,Clear,0,2013-10-01 08:35:00
1:55 AM,39.2,26.6,61,30.15,10.0,Calm,Calm,-,N/A,,Clear,0,2013-10-01 08:55:00
2:15 AM,35.6,24.8,65,30.15,10.0,Calm,Calm,-,N/A,,Clear,0,2013-10-01 09:15:00
2:35 AM,37.4,26.6,65,30.15,10.0,NW,4.6,-,N/A,,Clear,310,2013-10-01 09:35:00
2:55 AM,33.8,24.8,70,30.14,10.0,NW,4.6,-,N/A,,Clear,310,2013-10-01 09:55:00
3:15 AM,33.8,24.8,70,30.14,10.0,Calm,Calm,-,N/A,,Clear,0,2013-10-01 10:15:00
3:35 AM,39.2,28.4,65,30.13,10.0,Calm,Calm,-,N/A,,Clear,0,2013-10-01 10:35:00
3:55 AM,39.2,28.4,65,30.13,10.0,NW,4.6,-,N/A,,Clear,320,2013-10-01 10:55:00
4:15 AM,35.6,26.6,70,30.13,10.0,North,4.6,-,N/A,,Clear,10,2013-10-01 11:15:00
4:35 AM,39.2,28.4,65,30.13,10.0,Calm,Calm,-,N/A,,Clear,0,2013-10-01 11:35:00
4:55 AM,35.6,28.4,75,30.13,10.0,North,4.6,-,N/A,,Clear,10,2013-10-01 11:55:00
5:15 AM,39.2,28.4,65,30.12,10.0,Calm,Calm,-,N/A,,Clear,0,2013-10-01 12:15:00
5:35 AM,37.4,28.4,70,30.12,10.0,Calm,Calm,-,N/A,,Clear,0,2013-10-01 12:35:00
5:55 AM,35.6,28.4,75,30.13,10.0,Calm,Calm,-,N/A,,Clear,0,2013-10-01 12:55:00
6:15 AM,35.6,28.4,75,30.12,10.0,NNE,4.6,-,N/A,,Clear,20,2013-10-01 13:15:00
6:35 AM,35.6,26.6,70,30.13,10.0,Calm,Calm,-,N/A,,Clear,0,2013-10-01 13:35:00
6:55 AM,33.8,26.6,75,30.13,10.0,Calm,Calm,-,N/A,,Clear,0,2013-10-01 13:55:00
7:15 AM,33.8,26.6,75,30.13,10.0,Calm,Calm,-,N/A,,Clear,0,2013-10-01 14:15:00
7:35 AM,37.4,28.4,70,30.13,10.0,Calm,Calm,-,N/A,,Clear,0,2013-10-01 14:35:00
7:55 AM,41.0,28.4,61,30.14,10.0,WNW,4.6,-,N/A,,Clear,300,2013-10-01 14:55:00
8:15 AM,46.4,32.0,57,30.14,10.0,Calm,Calm,-,N/A,,Clear,0,2013-10-01 15:15:00
8:35 AM,50.0,32.0,50,30.14,10.0,Calm,Calm,-,N/A,,Clear,0,2013-10-01 15:35:00
8:55 AM,53.6,32.0,44,30.15,10.0,Calm,Calm,-,N/A,,Clear,0,2013-10-01 15:55:00
9:15 AM,55.4,32.0,41,30.15,10.0,Calm,Calm,-,N/A,,Clear,0,2013-10-01 16:15:00
9:35 AM,59.0,32.0,36,30.15,10.0,ESE,4.6,-,N/A,,Clear,110,2013-10-01 16:35:00
9:55 AM,59.0,32.0,36,30.15,10.0,Calm,Calm,-,N/A,,Clear,0,2013-10-01 16:55:00
10:15 AM,60.8,32.0,34,30.14,10.0,ESE,4.6,-,N/A,,Clear,120,2013-10-01 17:15:00
10:35 AM,64.4,32.0,30,30.14,10.0,East,6.9,-,N/A,,Clear,100,2013-10-01 17:35:00
10:55 AM,66.2,30.2,26,30.14,10.0,East,5.8,-,N/A,,Clear,100,2013-10-01 17:55:00
11:15 AM,66.2,28.4,24,30.13,10.0,East,9.2,-,N/A,,Clear,100,2013-10-01 18:15:00
11:35 AM,68.0,26.6,21,30.13,10.0,SE,8.1,-,N/A,,Clear,140,2013-10-01 18:35:00
11:55 AM,69.8,24.8,18,30.12,10.0,SSE,8.1,-,N/A,,Clear,150,2013-10-01 18:55:00
12:15 PM,71.6,26.6,19,30.11,10.0,ESE,6.9,-,N/A,,Clear,110,2013-10-01 19:15:00
12:35 PM,73.4,24.8,16,30.11,10.0,SE,8.1,-,N/A,,Clear,130,2013-10-01 19:35:00
12:55 PM,71.6,23.0,16,30.10,10.0,SSE,6.9,-,N/A,,Clear,160,2013-10-01 19:55:00
1:15 PM,73.4,23.0,15,30.09,10.0,South,10.4,-,N/A,,Clear,170,2013-10-01 20:15:00
1:35 PM,73.4,23.0,15,30.08,10.0,South,10.4,-,N/A,,Clear,170,2013-10-01 20:35:00
1:55 PM,73.4,23.0,15,30.08,10.0,Calm,Calm,-,N/A,,Clear,0,2013-10-01 20:55:00
2:15 PM,73.4,23.0,15,30.07,10.0,SSW,9.2,-,N/A,,Clear,200,2013-10-01 21:15:00
2:35 PM,71.6,28.4,20,30.08,10.0,WNW,15.0,24.2,N/A,,Clear,290,2013-10-01 21:35:00
2:55 PM,73.4,26.6,18,30.07,10.0,WSW,15.0,26.5,N/A,,Clear,240,2013-10-01 21:55:00
3:15 PM,73.4,26.6,18,30.07,10.0,WSW,11.5,26.5,N/A,,Clear,250,2013-10-01 22:15:00
3:35 PM,73.4,26.6,18,30.07,10.0,SW,12.7,25.3,N/A,,Clear,230,2013-10-01 22:35:00
3:55 PM,71.6,26.6,19,30.08,10.0,WSW,13.8,23.0,N/A,,Clear,240,2013-10-01 22:55:00
4:15 PM,69.8,26.6,20,30.08,10.0,WNW,19.6,24.2,N/A,,Clear,300,2013-10-01 23:15:00
4:35 PM,68.0,28.4,23,30.09,10.0,WNW,18.4,25.3,N/A,,Clear,300,2013-10-01 23:35:00
4:55 PM,66.2,28.4,24,30.09,10.0,WNW,17.3,24.2,N/A,,Clear,300,2013-10-01 23:55:00
5:15 PM,66.2,28.4,24,30.09,10.0,WNW,20.7,26.5,N/A,,Clear,300,2013-10-02 00:15:00
5:35 PM,66.2,28.4,24,30.09,10.0,WNW,16.1,24.2,N/A,,Clear,300,2013-10-02 00:35:00
5:55 PM,64.4,28.4,26,30.09,10.0,WNW,15.0,25.3,N/A,,Clear,290,2013-10-02 00:55:00
6:15 PM,62.6,28.4,27,30.09,10.0,WNW,19.6,25.3,N/A,,Clear,290,2013-10-02 01:15:00
6:35 PM,59.0,30.2,34,30.09,10.0,WNW,18.4,26.5,N/A,,Clear,290,2013-10-02 01:35:00
6:55 PM,59.0,30.2,34,30.10,10.0,WNW,18.4,-,N/A,,Clear,290,2013-10-02 01:55:00
7:15 PM,57.2,30.2,36,30.10,10.0,West,11.5,-,N/A,,Clear,270,2013-10-02 02:15:00
7:35 PM,55.4,28.4,36,30.10,10.0,West,13.8,17.3,N/A,,Clear,280,2013-10-02 02:35:00
7:55 PM,53.6,26.6,35,30.11,10.0,Calm,Calm,-,N/A,,Clear,0,2013-10-02 02:55:00
8:15 PM,53.6,28.4,38,30.12,10.0,Calm,Calm,-,N/A,,Clear,0,2013-10-02 03:15:00
8:35 PM,53.6,28.4,38,30.12,10.0,WNW,11.5,-,N/A,,Clear,290,2013-10-02 03:35:00
8:55 PM,53.6,30.2,41,30.12,10.0,WNW,10.4,16.1,N/A,,Clear,290,2013-10-02 03:55:00
9:15 PM,51.8,32.0,47,30.12,10.0,WNW,12.7,16.1,N/A,,Clear,290,2013-10-02 04:15:00
9:35 PM,51.8,30.2,44,30.12,10.0,West,10.4,-,N/A,,Clear,280,2013-10-02 04:35:00
9:55 PM,51.8,28.4,41,30.13,10.0,Calm,Calm,-,N/A,,Clear,0,2013-10-02 04:55:00
10:15 PM,50.0,28.4,43,30.13,10.0,ESE,8.1,-,N/A,,Clear,110,2013-10-02 05:15:00
10:35 PM,50.0,28.4,43,30.13,10.0,East,4.6,-,N/A,,Clear,90,2013-10-02 05:35:00
10:55 PM,48.2,28.4,46,30.13,10.0,Calm,Calm,-,N/A,,Clear,0,2013-10-02 05:55:00
11:15 PM,46.4,26.6,46,30.13,10.0,Calm,Calm,-,N/A,,Clear,0,2013-10-02 06:15:00
11:35 PM,42.8,26.6,53,30.12,10.0,Calm,Calm,-,N/A,,Clear,0,2013-10-02 06:35:00
11:55 PM,41.0,24.8,53,30.12,10.0,Calm,Calm,-,N/A,,Clear,0,2013-10-02 06:55:00